Showing default

COSMOS 158, 2801

Orbit data source: Space-Track

COSMOS 158, 2801 is a payload satellite owned by OKB-10 (CIS) in LEO that was launched on Mon, 15 May 1967 UTC via a KOSMOS 11K65M launch vehicle from the Plesetsk Missile And Space Complex (PKMTR). Payload-class satellites include a variety of spacecraft equipped with specific instruments for various scientific and technological missions. These include communications satellites like Starlink; space stations such as the ISS; scientific satellites like the Hubble; Earth observation satellites from companies like Planet Labs, Umbra, and HawkEye 360; GPS; miniature CubeSats for education and research; and military/defense satellites.

Loading next visibility...
Identifier
2801, 1967-045A
Orbit
LEO
Country
Flag of CISCIS
Related business
Manufacturer
OKB-10
Mission
Spacecraft
Bus & Motor
KAUR-1 11F617, Unknown motor
Mass
800 kg wet, 800 kg dry
Launch date (UTC)
1967-05-15 (58 years ago)
Launch vehicle
KOSMOS 11K65M
Launch site
Plesetsk Missile And Space Complex (PKMTR)
Object type
Payload
Rocket body
Debris
Shape & HBR
Unknown
Radar Cross Section
Large (>1 m²)

Expand to show TLE details & history
Last TLE update: 19 hours ago

TLE from 19 hours ago
0 COSMOS 158
1  2801U 67045A   25310.88507470  .00000021  00000-0  15832-4 0  9999
2  2801  74.0379 113.7033 0056715  14.8482 345.4320 14.36909124 64495
Epoch: 2025-11-06T21:14Z
TLE epoch observation values (Epoch: 2025-11-06T21:14:30.454Z)
Latitude
0.00002°
Longitude
108.73944°
Altitude
732.119 km
Speed
7.51 km/s
True Right ascension
07h 34m 48s
True Declination
0° 00' 00"
Sunlit
Object was in daylight at epoch
Visualization orbit readout
Latitude
Unknown
Longitude
Unknown
Altitude
Unknown
Speed
Unknown
Apparent Right ascension
Unknown
Apparent Declination
Unknown
Sunlit
N/A
Visualization observer readout
Local Sidereal Time
11:56:57
Azimuth
Unknown
Elevation
Unknown
Doppler factor
Unknown
Orbital elements
Apogee altitude
806.872 km
Perigee altitude
725.832 km
Semi-major axis
7,144.489 km
Eccentricity
0.00567
Inclination
74.0379°
RAAN
113.7033°
Arg. of periapsis
14.8482°
True anomaly
345.2674°
Mean anomaly
345.432°
Eccentric anomaly
345.34981°
Mean motion
3.59407 °/min
Orbital period
100.17 mins
BSTAR
0.000015832
Loading maneuver chart data...
Computing Atmospheric mass density...
Loading historical data...
Loading historical data...
Loading historical data...
Loading historical data...
Loading historical data...
Loading historical data...
Loading historical data...
Other satellites on launch #45 in the year 1967 (1967-05-15 UTC)

Documentation

Showing up to 5 results
|